Starlink 32457

operational
NORAD ID: 61717 Int'l Des: 2024-196 Owner: SPXS Country: US Constellation: starlink
LEOCIRCULAR

About Starlink 32457

Description loading...

Live Position

Loading 3D Globe...

Upcoming Passes

Altitude History

Altitude vs Time

uPlot chart will show altitude changes over time

Two-Line Element Set

1 61717U 24196L 25350.11947712 -.00001584 00000-0 -41389-4 0 9990
2 61717 53.1598 129.3688 0001223 89.8426 270.2715 15.30184645 64367
Epoch: Dec 16, 2025 • Age: 22 hours

Current Status

Altitude 493.6 km
Velocity 7.62 km/s
Sub-Earth Point -50.77°S, 33.85°W
Launch Date Oct 30, 2024
Age 1.1 years
Type internet

Technical Details

Classification Payload
Mass 730.00 kg
Dry Mass 700.00 kg
Total Mass 730.00 kg
Length 0.30 m
Diameter 4.10 m
Span 29.00 m
Shape Box + pan
Manufacturer SPXS
Bus Type Starlink V2M
Phase Status In Orbit
Owner/State SPXS/US

Large Constellations

Loading constellations...